CW3453 Weather Reports


time (UTC)temp
F
wind
direction
speed
knots
gust
knots
rain 1hr
in
rain 24hr
in
rain mn
in
humidity
%
barometer
mb
20260507063015 54 309 0.0 0.9 0.00 0.00 0.00 79 1022.0
20260507062504 54 296 0.0 0.0 0.00 0.00 0.00 79 1022.0
20260507062003 54 332 0.0 1.7 0.00 0.00 0.00 78 1021.9
20260507061510 54 333 0.0 1.7 0.00 0.00 0.00 78 1022.0
20260507061006 54 343 0.0 1.7 0.00 0.00 0.00 79 1022.0
20260507060503 54 351 0.0 1.7 0.00 0.00 0.00 78 1022.0
20260507060009 55 340 0.0 1.7 0.00 0.00 0.00 78 1022.0
20260507055504 55 307 0.0 1.7 0.00 0.00 0.00 78 1021.9
20260507055007 55 319 0.0 0.9 0.00 0.00 0.00 78 1021.9
20260507054505 55 319 0.0 1.7 0.00 0.00 0.00 78 1021.9
20260507054005 55 352 0.0 1.7 0.00 0.00 0.00 78 1021.9
20260507053504 55 17 0.0 2.6 0.00 0.00 0.00 77 1021.8
20260507053032 55 308 0.0 2.6 0.00 0.00 0.00 77 1021.7
20260507052507 55 350 0.0 0.9 0.00 0.00 0.00 77 1021.7
20260507052004 56 342 0.0 2.6 0.00 0.00 0.00 77 1021.8
20260507051530 56 63 0.0 2.6 0.00 0.00 0.00 77 1021.8
20260507051003 56 60 0.9 2.6 0.00 0.00 0.00 77 1021.8
20260507050504 56 26 0.0 1.7 0.00 0.00 0.00 77 1021.9
20260507050027 56 57 0.0 2.6 0.00 0.00 0.00 77 1021.8
20260507045503 56 95 0.0 2.6 0.00 0.00 0.00 76 1021.9
20260507045007 56 5 0.0 1.7 0.00 0.00 0.00 77 1021.8
20260507044515 56 326 0.0 1.7 0.00 0.00 0.00 76 1021.8
20260507044003 56 323 0.0 1.7 0.00 0.00 0.00 78 1021.9
20260507043512 56 352 0.0 2.6 0.00 0.00 0.00 78 1021.8
20260507043014 56 343 0.0 2.6 0.00 0.00 0.00 78 1021.8
20260507042509 57 16 0.0 2.6 0.00 0.00 0.00 77 1021.7
20260507042012 57 32 0.0 2.6 0.00 0.00 0.00 77 1021.7
20260507041508 57 32 0.0 4.3 0.00 0.00 0.00 77 1021.7
20260507041004 57 352 1.7 4.3 0.00 0.00 0.00 77 1021.6
20260507040507 57 317 0.0 3.5 0.00 0.00 0.00 77 1021.4
20260507040010 57 352 0.0 3.5 0.00 0.00 0.00 77 1021.4
20260507035505 57 67 0.0 3.5 0.00 0.00 0.00 76 1021.4
20260507035005 57 350 0.9 3.5 0.00 0.00 0.00 76 1021.3
20260507034534 57 74 0.0 3.5 0.00 0.00 0.00 76 1021.3
20260507034004 57 327 0.0 3.5 0.00 0.00 0.00 76 1021.2
20260507033505 58 14 0.9 3.5 0.00 0.00 0.00 76 1021.1
20260507033036 58 57 0.0 4.3 0.00 0.00 0.00 75 1021.1
20260507032509 58 338 0.0 4.3 0.00 0.00 0.00 75 1021.0
20260507032010 58 138 0.0 4.3 0.00 0.00 0.00 75 1020.9
20260507031521 58 346 0.9 4.3 0.00 0.00 0.00 74 1020.8
20260507031008 59 48 0.0 1.7 0.00 0.00 0.00 75 1020.8
20260507030514 59 336 0.0 1.7 0.00 0.00 0.00 74 1020.7
20260507030020 59 35 0.0 1.7 0.00 0.00 0.00 74 1020.7
20260507025504 59 350 0.0 3.5 0.00 0.00 0.00 74 1020.6
20260507025015 59 340 1.7 3.5 0.00 0.00 0.00 73 1020.6
20260507024603 60 352 0.9 2.6 0.00 0.00 0.00 74 1020.5
20260507023025 60 157 0.0 4.3 0.00 0.00 0.00 73 1020.4
20260507022916 60 40 0.9 4.3 0.00 0.00 0.00 73 1020.4
20260507022912 60 5 0.9 4.3 0.00 0.00 0.00 73 1020.4
20260507022905 61 27 0.9 6.1 0.00 0.00 0.00 72 1020.4
20260507022858 61 105 0.0 4.3 0.00 0.00 0.00 71 1020.4
20260507022853 62 320 0.9 3.5 0.00 0.00 0.00 71 1020.4
20260507022847 62 32 0.0 2.6 0.00 0.00 0.00 70 1020.5
20260507022844 63 360 0.9 4.3 0.00 0.00 0.00 69 1020.5
20260507022837 63 126 0.9 4.3 0.00 0.00 0.00 68 1020.5
20260507022832 64 92 0.9 4.3 0.00 0.00 0.00 67 1020.5
20260507022830 64 9 1.7 4.3 0.00 0.00 0.00 69 1020.6
20260507022827 64 50 0.0 2.6 0.00 0.00 0.00 67 1020.5
20260507022823 64 325 0.0 7.0 0.00 0.00 0.00 68 1020.5
20260507022815 64 135 0.9 8.7 0.00 0.00 0.00 68 1020.5
20260507022811 64 310 1.7 7.8 0.00 0.00 0.00 67 1020.4
20260507022807 65 26 1.7 7.8 0.00 0.00 0.00 67 1020.4
20260507022802 65 67 0.9 7.0 0.00 0.00 0.00 66 1020.3
20260507003509 65 9 0.9 6.1 0.00 0.00 0.00 66 1020.3
20260507003021 66 283 0.9 6.1 0.00 0.00 0.00 65 1020.1
20260507002503 66 326 1.7 6.1 0.00 0.00 0.00 64 1020.2
20260507002010 66 5 0.9 4.3 0.00 0.00 0.00 64 1020.1
20260507001518 66 78 1.7 4.3 0.00 0.00 0.00 65 1020.1
20260507001012 66 30 0.9 4.3 0.00 0.00 0.00 65 1020.1
20260507000506 66 11 0.0 3.5 0.00 0.00 0.00 67 1020.1
20260507000017 66 360 0.9 2.6 0.00 0.00 0.00 68 1020.0
20260506235508 66 9 0.0 2.6 0.00 0.00 0.00 69 1020.1
20260506235005 66 90 0.0 2.6 0.00 0.00 0.00 68 1020.2
20260506234502 67 30 0.0 2.6 0.00 0.00 0.00 69 1020.1
20260506234001 67 350 0.0 5.2 0.00 0.00 0.00 68 1020.1
20260506233502 67 43 0.9 5.2 0.00 0.00 0.00 66 1020.1
20260506233003 67 42 0.9 5.2 0.00 0.00 0.00 67 1020.1
20260506232502 67 24 0.9 3.5 0.00 0.00 0.00 67 1020.0
20260506232002 67 5 0.9 2.6 0.00 0.00 0.00 67 1020.1
20260506231503 68 350 0.9 4.3 0.00 0.00 0.00 66 1020.1
20260506231001 68 321 0.9 4.3 0.00 0.00 0.00 65 1020.2
20260506230502 68 316 0.0 4.3 0.00 0.00 0.00 66 1020.2
20260506230002 69 340 0.9 4.3 0.00 0.00 0.00 65 1020.2
20260506225502 69 32 0.9 4.3 0.00 0.00 0.00 64 1020.3
20260506225002 69 336 0.0 4.3 0.00 0.00 0.00 64 1020.3
20260506224503 69 317 1.7 4.3 0.00 0.00 0.00 64 1020.5
20260506224004 69 293 0.9 4.3 0.00 0.00 0.00 65 1020.5
20260506223501 69 65 0.9 4.3 0.00 0.00 0.00 65 1020.5
20260506223003 68 14 0.9 4.3 0.00 0.00 0.00 64 1020.6
20260506222502 69 336 0.0 4.3 0.00 0.00 0.00 66 1020.5
20260506222003 69 51 1.7 4.3 0.00 0.00 0.00 64 1020.6
20260506221507 68 39 0.9 3.5 0.00 0.00 0.00 66 1020.7
20260506221002 68 17 0.9 3.5 0.00 0.00 0.00 66 1020.7
20260506220502 68 333 0.0 3.5 0.00 0.00 0.00 67 1020.7
20260506220003 68 63 0.9 3.5 0.00 0.00 0.00 65 1020.7
20260506215503 68 346 0.9 3.5 0.00 0.00 0.00 66 1020.6
20260506215002 68 71 0.0 6.1 0.00 0.00 0.00 64 1020.7
20260506214505 68 76 1.7 6.1 0.00 0.00 0.00 65 1020.6
20260506214001 67 82 0.0 3.5 0.00 0.00 0.00 66 1020.6
20260506213503 67 94 0.9 3.5 0.00 0.00 0.00 69 1020.6
20260506213003 67 298 0.0 3.5 0.00 0.00 0.00 67 1020.6
20260506212503 66 39 0.9 4.3 0.00 0.00 0.00 67 1020.7
20260506212003 66 16 0.0 4.3 0.00 0.00 0.00 68 1020.6
20260506211502 67 333 0.9 4.3 0.00 0.00 0.00 66 1020.7
20260506211003 67 351 1.7 5.2 0.00 0.00 0.00 66 1020.8
20260506210503 68 320 1.7 5.2 0.00 0.00 0.00 65 1020.9
20260506210010 68 270 0.9 3.5 0.00 0.00 0.00 67 1020.9
20260506205504 67 102 0.0 4.3 0.00 0.00 0.00 65 1021.0
20260506205004 67 179 1.7 4.3 0.00 0.00 0.00 66 1021.0
20260506204504 67 179 0.9 3.5 0.00 0.00 0.00 65 1021.0
20260506204003 67 169 0.0 3.5 0.00 0.00 0.00 64 1021.1
20260506203502 68 146 0.0 2.6 0.00 0.00 0.00 65 1021.1
20260506203002 68 360 0.9 2.6 0.00 0.00 0.00 66 1021.0
20260506202503 67 169 0.0 4.3 0.00 0.00 0.00 67 1021.1
20260506202005 66 59 2.6 4.3 0.00 0.00 0.00 67 1021.0
20260506201502 66 95 1.7 4.3 0.00 0.00 0.00 68 1021.0
20260506201004 66 317 0.9 3.5 0.00 0.00 0.00 69 1021.0
20260506200503 66 302 0.9 7.8 0.00 0.00 0.00 71 1021.0
20260506200005 65 115 4.3 7.8 0.00 0.00 0.00 72 1021.1
20260506195503 64 311 0.9 2.6 0.00 0.00 0.00 72 1021.2
20260506195003 63 42 0.9 2.6 0.00 0.00 0.00 74 1021.3
20260506194503 63 53 0.0 3.5 0.00 0.00 0.00 75 1021.3
20260506194002 62 300 1.7 3.5 0.00 0.00 0.00 75 1021.4
20260506193504 62 83 0.9 3.5 0.00 0.00 0.00 75 1021.4
20260506193002 62 66 0.0 2.6 0.00 0.00 0.00 76 1021.4
20260506192503 61 26 0.0 3.5 0.00 0.00 0.00 77 1021.5
20260506192003 61 21 0.0 3.5 0.00 0.00 0.00 78 1021.5
20260506191503 61 360 0.9 2.6 0.00 0.00 0.00 78 1021.5
20260506191004 60 17 0.0 2.6 0.00 0.00 0.00 78 1021.4
20260506190503 60 320 0.0 3.5 0.00 0.00 0.00 79 1021.4
20260506190005 61 261 0.0 4.3 0.00 0.00 0.00 79 1021.3
20260506185501 61 62 0.0 4.3 0.00 0.00 0.00 79 1021.4
20260506185003 61 333 0.9 2.6 0.00 0.00 0.00 78 1021.3
20260506184503 61 352 0.0 1.7 0.00 0.00 0.00 78 1021.3
20260506184004 60 62 0.0 1.7 0.00 0.00 0.00 78 1021.3
20260506183502 60 51 0.0 1.7 0.00 0.00 0.00 79 1021.3
20260506183006 60 78 0.0 1.7 0.00 0.00 0.00 79 1021.4
20260506182501 60 92 0.9 1.7 0.00 0.00 0.00 80 1021.3
20260506182003 60 67 0.0 1.7 0.00 0.00 0.00 80 1021.3
20260506181503 59 208 0.0 1.7 0.00 0.00 0.00 81 1021.2
20260506181002 59 340 0.0 1.7 0.00 0.00 0.00 80 1021.3
20260506180503 59 340 0.0 1.7 0.00 0.00 0.00 82 1021.3
20260506180009 59 250 0.0 0.9 0.00 0.00 0.00 82 1021.3
20260506175503 59 295 0.0 1.7 0.00 0.00 0.00 81 1021.4
20260506175006 58 340 0.0 1.7 0.00 0.00 0.00 81 1021.3
20260506174507 58 194 0.0 1.7 0.00 0.00 0.00 82 1021.3
20260506174001 58 193 0.0 1.7 0.00 0.00 0.00 82 1021.3
20260506173503 58 280 0.0 0.9 0.00 0.00 0.00 82 1021.3
20260506173010 58 182 0.0 0.9 0.00 0.00 0.00 82 1021.2
20260506172504 58 182 0.0 1.7 0.00 0.00 0.00 83 1021.1
20260506172002 58 60 0.0 1.7 0.00 0.00 0.00 82 1021.1
20260506171507 58 84 0.0 1.7 0.00 0.00 0.00 82 1021.1
20260506171003 58 68 0.0 3.5 0.00 0.00 0.00 82 1021.1
20260506170505 58 154 0.0 3.5 0.00 0.00 0.00 82 1021.0
20260506170009 58 145 0.0 2.6 0.00 0.00 0.00 82 1021.1
20260506165506 58 164 0.0 1.7 0.00 0.00 0.00 83 1021.1
20260506165003 57 164 0.0 1.7 0.00 0.00 0.00 83 1021.1
20260506164510 57 155 0.0 1.7 0.00 0.00 0.00 83 1021.1
20260506164002 57 101 0.0 1.7 0.00 0.00 0.00 82 1021.2
20260506163503 57 248 0.0 1.7 0.00 0.00 0.00 82 1021.2
20260506163011 57 95 0.0 1.7 0.00 0.00 0.00 82 1021.1
20260506162504 57 132 0.0 2.6 0.00 0.00 0.00 82 1021.1
20260506162003 57 178 0.9 2.6 0.00 0.00 0.00 82 1021.3
20260506161512 57 184 0.9 2.6 0.00 0.00 0.00 83 1021.3
20260506161004 57 149 0.0 1.7 0.00 0.00 0.00 83 1021.3
20260506160502 57 227 0.0 2.6 0.00 0.00 0.00 83 1021.0
20260506160013 57 160 0.9 2.6 0.00 0.00 0.00 84 1020.9
20260506155506 57 148 0.0 1.7 0.00 0.00 0.00 83 1020.8
20260506155007 56 169 0.0 3.5 0.00 0.00 0.00 84 1020.9
20260506154511 56 85 0.0 3.5 0.00 0.00 0.00 84 1020.5
20260506154004 56 96 0.9 1.7 0.00 0.00 0.00 85 1020.4
20260506153503 56 169 0.0 3.5 0.00 0.00 0.00 85 1020.4
20260506153012 56 104 0.9 3.5 0.00 0.00 0.00 85 1020.3
20260506152503 55 94 0.0 2.6 0.00 0.00 0.00 85 1020.4
20260506152004 55 77 0.9 2.6 0.00 0.00 0.00 85 1020.3
20260506151514 55 159 0.0 2.6 0.00 0.00 0.00 85 1020.6
20260506151005 55 330 0.0 1.7 0.00 0.00 0.00 85 1020.9
20260506150504 55 84 0.0 1.7 0.00 0.00 0.00 84 1021.0
20260506150015 55 76 0.0 1.7 0.00 0.00 0.00 84 1021.1
20260506145504 55 340 0.0 1.7 0.00 0.00 0.00 85 1021.0
20260506145005 55 352 0.0 1.7 0.00 0.00 0.00 85 1021.0
20260506144502 56 342 0.0 1.7 0.00 0.00 0.00 85 1021.0
20260506144002 56 342 0.0 1.7 0.00 0.00 0.00 85 1020.9
20260506143502 56 342 0.0 1.7 0.00 0.00 0.00 85 1020.9
20260506143005 56 350 0.0 1.7 0.00 0.00 0.00 84 1020.7
20260506142503 56 13 0.0 1.7 0.00 0.00 0.00 85 1020.8
20260506142003 56 336 0.0 1.7 0.00 0.00 0.00 85 1020.7
20260506141503 56 334 0.0 1.7 0.00 0.00 0.00 85 1020.5
20260506141006 56 347 0.0 1.7 0.00 0.00 0.00 86 1020.4
20260506140505 56 347 0.0 1.7 0.00 0.00 0.00 85 1020.1
20260506140003 56 320 0.0 1.7 0.00 0.00 0.00 85 1020.1
20260506135503 56 326 0.0 1.7 0.00 0.00 0.00 85 1020.1
20260506135005 56 169 0.0 0.0 0.00 0.00 0.00 86 1020.1
20260506134504 56 340 0.0 1.7 0.00 0.00 0.00 85 1020.0
20260506134002 56 340 0.0 1.7 0.00 0.00 0.00 86 1020.0
20260506133503 56 325 0.0 1.7 0.00 0.00 0.00 86 1020.0
20260506133004 56 17 0.0 0.0 0.00 0.00 0.00 86 1020.0
20260506132504 56 11 0.0 1.7 0.00 0.00 0.00 86 1020.0
20260506132002 56 11 0.0 1.7 0.00 0.00 0.00 86 1020.0
20260506131507 56 118 0.0 0.0 0.00 0.00 0.00 86 1019.9
20260506131004 56 118 0.0 0.0 0.00 0.00 0.00 86 1019.7
20260506130503 55 118 0.0 0.0 0.00 0.00 0.00 86 1019.5
20260506130004 56 118 0.0 0.0 0.00 0.00 0.00 85 1019.4
20260506125504 56 118 0.0 0.0 0.00 0.00 0.00 85 1019.3
20260506125003 56 118 0.0 0.0 0.00 0.00 0.00 85 1019.3
20260506124504 56 118 0.0 0.0 0.00 0.00 0.00 85 1019.3
20260506124003 56 118 0.0 1.7 0.00 0.00 0.00 85 1019.3
20260506123505 56 118 0.0 1.7 0.00 0.00 0.00 84 1019.3
20260506123002 56 124 0.0 1.7 0.00 0.00 0.00 84 1019.4
20260506122504 56 84 0.0 1.7 0.00 0.00 0.00 84 1019.3
20260506122003 56 95 0.0 1.7 0.00 0.00 0.00 84 1019.3
20260506121512 56 74 0.0 1.7 0.00 0.00 0.00 84 1019.4
20260506121003 56 67 0.0 1.7 0.00 0.00 0.00 84 1019.5
20260506120503 56 55 0.0 1.7 0.00 0.00 0.00 84 1019.5
20260506120021 56 352 0.0 1.7 0.00 0.00 0.00 84 1019.5
20260506115504 56 351 0.0 0.0 0.00 0.00 0.00 84 1019.5
20260506115003 56 351 0.0 0.9 0.00 0.00 0.00 84 1019.4
20260506114508 56 306 0.0 0.9 0.00 0.00 0.00 84 1019.4
20260506114004 56 332 0.0 0.0 0.00 0.00 0.00 84 1019.3
20260506113502 56 5 0.0 0.9 0.00 0.00 0.00 84 1019.3
20260506113004 56 5 0.0 1.7 0.00 0.00 0.00 83 1019.2
20260506112508 56 33 0.0 1.7 0.00 0.00 0.00 83 1019.2
20260506112003 56 342 0.0 1.7 0.00 0.00 0.00 83 1019.2
20260506111504 56 28 0.0 0.9 0.00 0.00 0.00 83 1019.1
20260506111004 56 325 0.0 0.0 0.00 0.00 0.00 83 1019.2
20260506110504 56 325 0.0 0.0 0.00 0.00 0.00 83 1019.1
20260506110020 56 333 0.0 1.7 0.00 0.00 0.00 83 1018.9
20260506105504 56 342 0.0 1.7 0.00 0.00 0.00 83 1018.9
20260506105003 56 315 0.0 1.7 0.00 0.00 0.00 83 1018.8
20260506104519 56 342 0.0 0.9 0.00 0.00 0.00 83 1018.7
20260506104003 57 9 0.0 1.7 0.00 0.00 0.00 83 1018.6
20260506103503 57 5 0.0 1.7 0.00 0.00 0.00 84 1018.6
20260506103016 57 344 0.0 0.0 0.00 0.00 0.00 83 1018.6
20260506102503 57 344 0.0 0.9 0.00 0.00 0.00 83 1018.4
20260506102004 57 344 0.0 0.9 0.00 0.00 0.00 83 1018.4
20260506101512 57 340 0.0 0.0 0.00 0.00 0.00 83 1018.3
20260506101005 57 340 0.0 0.0 0.00 0.00 0.00 83 1018.3
20260506100504 57 340 0.0 0.9 0.00 0.00 0.00 83 1018.2
20260506100012 57 340 0.0 0.9 0.00 0.00 0.00 82 1018.0
20260506095505 57 340 0.0 0.0 0.00 0.00 0.00 83 1018.1
20260506095006 57 340 0.0 0.0 0.00 0.00 0.00 83 1018.0
20260506094507 57 340 0.0 1.7 0.00 0.00 0.00 82 1018.0
20260506094005 57 340 0.0 1.7 0.00 0.00 0.00 82 1017.9
20260506093505 57 349 0.0 1.7 0.00 0.00 0.00 82 1017.9
20260506093003 57 5 0.0 1.7 0.00 0.00 0.00 82 1017.8
20260506092503 57 43 0.0 0.9 0.00 0.00 0.00 82 1017.8
20260506092004 57 43 0.0 0.9 0.00 0.00 0.00 82 1017.8
20260506091526 58 43 0.0 0.9 0.00 0.00 0.00 82 1017.8
20260506091003 58 43 0.0 0.9 0.00 0.00 0.00 82 1017.7
20260506090502 58 43 0.0 0.0 0.00 0.00 0.00 82 1017.7
20260506090023 58 43 0.0 0.0 0.00 0.00 0.00 82 1017.7
20260506085506 58 43 0.0 0.0 0.00 0.00 0.00 82 1017.7
20260506085003 58 43 0.0 0.0 0.00 0.00 0.00 82 1017.7
20260506084532 58 43 0.0 0.0 0.00 0.00 0.00 83 1017.7
20260506084004 58 43 0.0 0.0 0.00 0.00 0.00 82 1017.7
20260506083504 58 43 0.0 0.0 0.00 0.00 0.00 82 1017.7
20260506083013 58 43 0.0 0.0 0.00 0.00 0.00 82 1017.7
20260506082504 58 43 0.0 0.0 0.00 0.00 0.00 82 1017.7
20260506082009 58 43 0.0 0.0 0.00 0.00 0.00 82 1017.7
20260506081516 58 43 0.0 0.0 0.00 0.00 0.00 82 1017.6
20260506081004 58 43 0.0 0.0 0.00 0.00 0.00 82 1017.6
20260506080506 58 43 0.0 0.0 0.00 0.00 0.00 82 1017.6
20260506073504 59 44 0.0 0.9 0.00 0.00 0.00 81 1017.4
20260506073024 59 44 0.0 0.9 0.00 0.00 0.00 81 1017.4
20260506072512 59 26 0.0 0.0 0.00 0.00 0.00 81 1017.4
20260506072003 59 9 0.0 0.0 0.00 0.00 0.00 81 1017.4
20260506071520 59 9 0.0 0.0 0.00 0.00 0.00 80 1017.4
20260506071008 59 9 0.0 0.0 0.00 0.00 0.00 80 1017.3
20260506070504 59 9 0.0 1.7 0.00 0.00 0.00 80 1017.3